Regional Weather Roundup
Issued by NWS Charleston, SC

Current Version | Previous Version | Graphics & Text | Print | Product List | Glossary On
Versions: 1 2 3 4 5 6 7 8 9 10 11 12 13 14 15 16 17 18 19 20 21 22 23 24 25 26 27 28 29 30 31 32 33 34 35 36 37 38 39 40 41 42 43 44 45 46 47 48 49 50
000 ASUS42 KCHS 281527 RWRCHS REGIONAL WEATHER ROUNDUP NATIONAL WEATHER SERVICE CHARLESTON SC 1100 AM EDT WED JUN 28 2017 NOTE: "FAIR" INDICATES FEW OR NO CLOUDS BELOW 12,000 FEET WITH NO SIGNIFICANT WEATHER AND/OR OBSTRUCTIONS TO VISIBILITY. NOT ALL STATIONS ARE QUALITY CONTROLLED. USE DATA WITH CAUTION... ESPECIALLY DEWPOINT OBSERVATIONS. SCZ027-030-031-034>040-042>050-281600- ...SOUTHEAST SOUTH CAROLINA... CITY SKY/WX TMP DP RH WIND PRES REMARKS N CHARLESTON PTSUNNY 82 64 54 E15G21 30.15R WATERFRONT PRK N/A 81 71 71 E15 30.12R JOHNS ISLAND FAIR 82 68 61 NE18G25 30.15R PINOPOLIS N/A 79 61 53 E12 30.09R MONCKS CORNER FAIR 79 61 53 E7 30.16S SUMMERVILLE FAIR 81 61 50 E7 30.17R BEAUFORT MCAS PTSUNNY 82 69 64 E10 30.14S BEAUFORT ARPT FAIR 81 70 69 E12 30.14R HILTON HEAD IS NOT AVBL WALTERBORO PTSUNNY 81 63 54 E10 30.16S ALLENDALE FAIR 81 63 54 E8G14 30.15R ...SOUTHERN MIDLANDS AND PEE DEE... CITY SKY/WX TMP DP RH WIND PRES REMARKS GEORGETOWN FAIR 81 59 47 NE12 30.18R KINGSTREE FAIR 79 54 41 NE7 30.18R ORANGEBURG MOSUNNY 80 55 42 E10 30.17R BARNWELL FAIR 82 63 51 E10 30.17R AIKEN FAIR 81 54 39 NE10 30.22R MANNING FAIR 81 61 50 E12G21 30.18R COLUMBIA MOSUNNY 82 54 37 E10 30.18R SUMTER SUNNY 81 51 35 E14 30.16R FLORENCE SUNNY 81 54 39 E13 30.19R MYRTLE BEACH SUNNY 82 55 39 E12 30.18R N MYRTLE BEACH SUNNY 82 54 37 E10 30.17R $$ GAZ063-065-086>088-099>101-113>116-118-119-134>141-150-281600- ...SOUTHEAST GEORGIA... CITY SKY/WX TMP DP RH WIND PRES REMARKS SAVANNAH ARPT CLOUDY 82 63 52 E10 30.14R HUNTER AAF CLOUDY 83 68 60 E12G17 30.11S FORT STEWART CLOUDY 81 69 67 NE9 30.11S STATESBORO MOSUNNY 82 69 64 E5 30.14S SYLVANIA MOSUNNY 82 70 66 E7 30.15F CLAXTON FAIR 80 69 69 NE7 30.14R ...CSRA...CENTRAL AND FAR SOUTHEAST GEORGIA... CITY SKY/WX TMP DP RH WIND PRES REMARKS THOMSON SUNNY 81 64 55 S7 30.23R AUGUSTA-BUSH MOSUNNY 84 60 44 SE9 30.15R AUGUSTA-DANIEL SUNNY 83 55 38 E10 30.17R SWAINSBORO FAIR 81 68 65 E8 30.16R VIDALIA PTSUNNY 81 72 74 E9 30.14S EASTMAN FAIR 83 58 43 E6 30.16S HAZLEHURST PTSUNNY 82 74 75 E8 30.12S ALMA PTSUNNY 82 71 69 E9 30.12S WAYCROSS CLOUDY 83 78 84 E10 30.11S HX 94 JESUP PTSUNNY 82 70 65 E10 30.12R BAXLEY PTSUNNY 82 79 89 E9 30.12S HX 93 BRUNSWICK MOSUNNY 86 72 62 NE14G21 30.12R HX 92 SAINT SIMONS MOSUNNY 83 71 67 E13 30.11R $$ SCZ027-028-034-036>038-045-046-048>050-GAZ119-141-281600- ...LAKE AND SUPPLEMENTAL COASTAL OBSERVATIONS... STATION/POSITION TIME TEMP WIND PRES WAVE SWELL AIR SEA DIR/SP/G HT/PER HT/PER/DIR (UTC) (F) (DEG/KT/KT) (MB) (FT/S) (FT/S/D) WINYAH BAY 1430 78 60/ 13 1021.0S LAKE MURRAY 1450 78 60/ 3/ 9 1021.0S ACE BASIN NERRS 1430 81 70/ 4 1021.0S FORT PULASKI 1500 81 83 70/ 11/ 14 1020.7 SAPELO ISLAND 1500 84 70/ 11 1020.0 $$ ANZ835-935-AMZ111-154-330-350-352-354-370-450-454-472-281600- ...C-MAN AND BUOY OBSERVATIONS... STATION/POSITION TIME TEMP WIND PRES WAVE SWELL AIR SEA DIR/SP/G HT/PER HT/PER/DIR (UTC) (F) (DEG/KT/KT) (MB) (FT/S) (FT/S/D) BUOY 41004 1510 80 80 60/ 16/ 19 1020.1 BUOY 41008 1450 80 82 70/ 14/ 17 1019.2R 2/ 3 2/170/ 7 FOLLY BEACH CMAN 1500 81 80/ 17/ 19 1021.5R CAPERS NEARSHORE 1508 85 83 80/ 16/ 23 1020.5R FRIPP NEARSHORE 1508 81 83 80/ 14/ 19 1019.8R STATION/POSITION TIME TEMP WIND PRES WAVE SWELL AIR SEA DIR/SP/G HT/PER HT/PER/DIR (UTC) (F) (DEG/KT/KT) (MB) (FT/S) (FT/S/D) 5E ST. MARYS GA 1500 80 N/A 2/ 4 FRYING PAN BUOY 1510 79 80 50/ 14/ 16 1020.9 BUOY 41025 1450 76 80 360/ 12/ 14 1020.9R 2/ 6 2/ 60/ 6 CAPE LOOKOUT NC 1500 78 60/ 10/ 11 1021.2R BUOY 41002 1450 80 81 40/ 14/ 14 1019.6R 2/ 6 2/190/ 7 BUOY 41010 1510 80 83 20/ 12/ 14 1018.9 ST AUGUSTINE FL 1500 80 79 50/ 10/ 11 1019.6R $$

USA.gov is the U.S. government's official web portal to all federal, state and local government web resources and services.